Tracking 20066 objects as of 6-Dec-2019
HD Live streaming from Space Station
objects crossing your sky now

SL-8 DEB

Track SL-8 DEB now!
10-day predictions


NORAD ID: 39702
Int'l Code: 1991-009DR
Perigee: 1,472.9 km
Apogee: 1,772.8 km
Inclination: 74.2 °
Period: 118.5 minutes
Semi major axis: 7993 km
RCS: 0.0183 m2 (small)
Launch date: February 12, 1991
Source: Commonwealth of Independent States (former USSR) (CIS)
Launch site: PLESETSK MISSILE AND SPACE COMPLEX (PKMTR)

Note: This is SATELLITE DEBRIS
aabbcc
Your satellite tracking list
Your tracking list is empty




NASA's NSSDC Master Catalog

Two Line Element Set (TLE):
1 39702U 91009DR  19337.95296633 -.00000163 +00000-0 -14656-2 0  9992
2 39702 074.2329 227.3778 0187610 018.8158 341.9687 12.14700732167627
Source of the keplerian elements: AFSPC